Regional Weather Roundup
Issued by NWS Lake Charles, LA

Home | Current Version | Previous Version | Text Only | Print | Product List | Glossary On
Versions: 1 2 3 4 5 6 7 8 9 10 11 12 13 14 15 16 17 18 19 20 21 22 23 24 25 26 27
000
ASUS44 KLCH 200510
RWRLCH
RWRLCH
REGIONAL WEATHER ROUNDUP
NATIONAL WEATHER SERVICE LAKE CHARLES LA
1200 AM CDT SUN APR 20 2014

Note: "fair" indicates few or no clouds below 12,000 feet with no
significant weather and/or obstructions to visibility.


ACROSS SOUTHEAST TEXAS

CITY           SKY/WX    TMP DP  RH WIND       PRES   REMARKS
BEAUMONT       PTCLDY    58  56  93 SW5       30.13R FOG
BEAUMONT CITY    N/A     60  59  99 CALM      30.13S
ORANGE         PTCLDY    58  58 100 CALM      30.14R FOG
JASPER         CLOUDY    59  57  92 CALM      30.16R
$$

ACROSS CENTRAL LOUISIANA

CITY           SKY/WX    TMP DP  RH WIND       PRES   REMARKS
LEESVILLE      CLEAR     59  54  83 CALM      30.12F
FULLERTON        N/A     58  54  86 CALM      30.11S
ALEXANDRIA INT PTCLDY    60  57  89 CALM      30.12F
ESLER FIELD    PTCLDY    57  53  86 CALM      30.14S
DERIDDER         N/A     60  56  85 CALM      30.14S
OAKDALE        CLEAR     53  52  94 CALM      30.13S
OPELOUSAS        N/A     57  54  89 CALM      30.13S
$$

ACROSS SOUTHWEST AND SOUTH CENTRAL LOUISIANA

CITY           SKY/WX    TMP DP  RH WIND       PRES   REMARKS
SULPHUR        CLEAR     60  60  99 CALM      30.13S
LAKE CHARLES   CLEAR     59  57  93 CALM      30.12F
CHENNAULT INT  CLEAR     60  58  91 CALM      30.13S
CAMERON PHI      N/A     64  63  94 CALM      30.13S
DEQUINCY         N/A     56  55  97 CALM      30.13S
JENNINGS         N/A     62  57  84 CALM      30.12S
LAFAYETTE      PTCLDY    61  56  83 CALM      30.13S
NEW IBERIA     PTCLDY    62  57  83 CALM      30.13S
ABBEVILLE        N/A    N/A N/A N/A CALM      30.12S
PATTERSON      CLEAR     61  57  88 CALM      30.15S
SALT POINT       N/A     67  63  87 CALM      30.12S
$$

SELECTED SITES ACROSS THE REGION

CITY           SKY/WX    TMP DP  RH WIND       PRES   REMARKS
HOUSTON BUSH   CLOUDY    65  61  87 S5        30.15R
HOUSTON HOBBY  MOCLDY    63  61  93 S3        30.14R
GALVESTON      CLEAR     66  65  96 S8        30.15R
COLLEGE STAT   MOCLDY    68  60  75 S10       30.14R
CONROE         MOCLDY    62  59  90 CALM      30.16R
HUNTSVILLE     MOCLDY    65  57  75 S8        30.15R
LUFKIN         MOCLDY    66  57  72 S5        30.14R
SHREVEPORT     PTCLDY    60  54  80 CALM      30.12S
MONROE         PTCLDY    59  55  87 CALM      30.15S
NATCHEZ MS     CLEAR     55  52  88 CALM      30.13F
BATON ROUGE    CLEAR     63  53  70 N3        30.12F
N.O. INTL ARPT CLEAR     66  57  72 CALM      30.11F
SLIDELL        CLEAR     58  55  90 N3        30.11F
$$

MARINE REPORTS

STATION/POSITION TIME  TEMP    WIND        PRES    VSBY  WAVE
                       AIR SEA DIR/SP/G                  HT/PER
                 (UTC) (F)     (DEG/KT/KT) (MB)    (MI)  (FT/S)
BUOY 30 S HIGH I 0500   67 67  190/  8/ 10 1020.1R         1/ 8
SEA RIM ST PARK  0500   66     220/  5/  6 1020.8R
PORT ARTHUR      0500      67  220/  2/  3 1020.0S
SABINE PASS N    0500   65 67  230/  3/  4 1020.0R
TEXAS POINT      0500   67 67  210/  6/  7 1020.3R
CALCASIEU PASS   0500   67 67  250/  2/  3 1020.9F
LK CHARLES BEACH 0500   65 67              1020.6S
MARSH ISLAND     0400   68     320/  2/  3   N/A
FRESH WATER LOCK 0500   65 69  280/  4/  5 1020.0F
AMERADA PASS     0500   65 67  260/  3/  5 1020.0S
$$



USA.gov is the U.S. government's official web portal to all federal, state and local government web resources and services.